Location: D�tain
(47.1727°N, 4.7918°E)
Time: 19:51:14
(UTC+00:00)

Daily predictions for brighter satellites

Satellite Brightness Start Highest point End
(mag) Time Altitude Azimuth Time Altitude Azimuth Time Altitude Azimuth
Spot 2 Rocket 4.2 19:54:16 10° SE 19:58:54 38° ENE 20:03:33 10° N
STARLINK-1092 3.7 19:54:56 10° WNW 19:59:05 79° SSW 20:03:13 10° SE
ASTEX 1 3.9 19:54:58 10° S 19:59:49 66° W 20:04:44 10° N
Okean 1-7 3.0 19:55:54 10° S 20:00:09 75° E 20:04:25 10° NNE
Cosmos 1515 3.8 19:57:59 10° S 20:01:42 54° E 20:05:26 10° NNE
STARLINK-1205 3.6 19:57:58 10° SW 20:02:05 72° SSE 20:06:13 10° ENE
Okean 1 3.4 19:59:46 10° S 20:03:48 84° W 20:07:54 10° N
STARLINK-1080 3.7 20:00:00 10° WNW 20:04:08 74° SSW 20:08:15 10° SE
STARLINK-1228 4.3 20:01:08 10° W 20:04:28 47° NNW 20:07:47 10° NE
Cosmos 676 Rocket 4.3 19:59:34 10° NNW 20:04:45 59° ENE 20:09:57 10° SE
Meteor 1-19 Rocket 4.3 20:00:38 10° S 20:06:12 68° E 20:11:57 10° NNE
STARLINK-1083 4.4 20:02:11 10° WNW 20:06:14 48° NNE 20:10:16 10° E
STARLINK-1218 3.6 20:02:55 10° SW 20:07:03 77° SSE 20:11:12 10° ENE
MOS 1 Rocket 3.7 20:02:42 10° N 20:07:08 63° WNW 20:11:22 10° SSW
STARLINK-1090 3.7 20:04:56 10° WNW 20:09:05 69° SSW 20:13:11 10° SE
DMSP B5D2-2 4.3 20:04:39 10° NNE 20:09:58 79° WNW 20:15:14 10° SSW
STARLINK-1125 4.4 20:07:11 10° WNW 20:11:13 50° NNE 20:15:16 10° E
STARLINK-1254 3.6 20:07:53 10° SW 20:12:02 82° SSE 20:16:12 10° ENE
Cosmos 2056 Rocket 3.4 20:07:09 10° SSW 20:12:14 74° ESE 20:17:21 10° NNE
STARLINK-1089 3.8 20:09:56 10° WNW 20:14:02 64° SW 20:18:06 10° SE
Cosmos 389 Rocket 3.6 20:10:59 10° SSW 20:14:20 47° WNW 20:17:45 10° N
Cosmos 1544 3.0 20:10:53 10° N 20:14:33 87° E 20:18:09 10° S
NOSS 2-3 (E) 3.7 20:11:29 10° SW 20:15:46 90° SSE 20:20:54 10° NE
STARLINK-1109 4.3 20:12:10 10° WNW 20:16:14 52° NNE 20:20:18 10° E
STARLINK-1231 3.6 20:12:51 10° WSW 20:17:00 87° SSE 20:21:09 10° ENE
SAR-Lupe-2 4.5 20:14:23 10° NE 20:17:37 30° E 20:20:49 10° SSE
Cosmos 1356 4.1 20:14:25 10° NNW 20:17:48 55° W 20:21:11 10° S
CZ-2C R/B 4.3 20:14:25 10° N 20:18:49 60° WNW 20:23:15 10° SSW
STARLINK-1107 3.9 20:14:54 10° WNW 20:18:59 59° SW 20:22:53 11° SE
SL-8 R/B 3.9 20:15:20 10° W 20:20:09 77° N 20:24:59 10° E
Meteor 1-18 Rocket 4.4 20:15:01 10° SSW 20:20:34 80° WNW 20:26:17 10° N
MetOp-B 4.2 20:15:30 10° SSE 20:20:49 72° ENE 20:26:10 10° N
STARLINK-1091 4.2 20:17:08 10° WNW 20:21:13 55° NNE 20:25:17 10° E
STARLINK-1232 3.7 20:17:50 10° WSW 20:22:00 87° NNW 20:26:10 10° ENE
SPOT 5 4.2 20:19:18 10° SE 20:23:49 31° ENE 20:28:28 10° N
STARLINK-1066 4.0 20:19:56 10° WNW 20:23:59 55° SW 20:27:42 12° SE
STARLINK-1224 4.4 20:20:53 10° SSW 20:24:29 30° SE 20:28:08 10° ENE
STARLINK-1072 4.1 20:22:08 10° WNW 20:26:14 57° NNE 20:30:19 10° E
Cosmos 2221 Rocket 3.8 20:22:32 10° S 20:26:54 53° E 20:31:20 10° NNE
STARLINK-1208 3.7 20:22:49 10° WSW 20:26:58 83° NNW 20:31:08 10° ENE
COSMOS 2406 3.5 20:21:21 10° NNW 20:27:07 72° WSW 20:32:50 10° SSE
Landsat 7 4.1 20:22:58 10° SSE 20:27:36 56° ENE 20:32:17 10° N
Intercosmos 24 4.1 20:24:43 10° N 20:28:17 44° ENE 20:31:22 12° SSE
STARLINK-1081 4.1 20:24:54 10° WNW 20:28:55 50° SW 20:32:28 13° SE
STARLINK-1225 4.3 20:25:45 10° SSW 20:29:27 32° SE 20:33:10 10° ENE
USA 245 2.9 20:27:16 11° SSE 20:30:24 55° ENE 20:33:09 10° N
STARLINK-1096 4.0 20:27:07 10° WNW 20:31:13 60° NNE 20:35:19 10° ESE
Meteor 2-4 Rocket 3.6 20:26:21 10° S 20:31:40 69° E 20:37:00 10° NNE
STARLINK-1271 3.8 20:27:48 10° WSW 20:31:57 78° NNW 20:36:07 10° ENE
Cosmos 1782 Rocket 4.4 20:29:01 10° NNW 20:33:22 51° W 20:37:42 10° S
STARLINK-1070 4.2 20:29:53 10° WNW 20:33:52 47° SW 20:37:14 14° SSE
STARLINK-1230 4.2 20:30:38 10° SSW 20:34:23 35° SE 20:38:10 10° ENE
ATLAS 3B CENTAUR R/B 4.4 20:28:33 10° SSW 20:34:34 15° S 20:38:13 11° SSE
NOSS 2-3 (D) 4.1 20:31:37 10° SW 20:35:54 69° NW 20:41:03 10° NE
STARLINK-1079 4.0 20:32:06 10° WNW 20:36:14 63° NNE 20:40:18 10° ESE
STARLINK-1154 3.9 20:32:46 10° WSW 20:36:55 74° NNW 20:41:04 10° ENE
Resurs 01 Rocket 2.5 20:33:29 10° S 20:37:48 49° W 20:42:09 10° NNW
Meteor 1-12 Rocket 4.3 20:32:48 10° N 20:38:28 74° ENE 20:43:54 11° SSE
Sich 1 Rocket 4.0 20:34:02 10° NNW 20:38:37 69° W 20:43:10 10° S
STARLINK-1069 4.3 20:34:54 10° WNW 20:38:51 43° SW 20:42:01 15° SSE
STARLINK-1243 4.1 20:35:31 10° SSW 20:39:21 38° SE 20:43:12 10° ENE
NOSS 3 (A) 4.2 20:38:17 10° SW 20:40:56 81° SE 20:43:54 10° NE
STARLINK-1116 3.9 20:37:04 10° WNW 20:41:12 67° NNE 20:45:04 12° ESE
USA 215 4.4 20:35:09 10° E 20:41:13 42° NNE 20:47:15 10° NW
STARLINK-1197 4.0 20:37:45 10° WSW 20:41:54 70° NNW 20:46:02 10° ENE
Cosmos 1452 Rocket 3.7 20:37:53 10° S 20:42:57 51° ESE 20:48:05 10° NNE
STARLINK-1085 4.4 20:39:56 10° WNW 20:43:49 40° SW 20:46:49 15° SSE
Meteor 1-13 Rocket 4.3 20:38:37 10° S 20:44:04 59° E 20:49:42 10° NNE
STARLINK-1236 4.0 20:40:26 10° SSW 20:44:19 41° SE 20:48:13 10° ENE
Abrixas rocket 2.3 20:43:04 10° W 20:46:01 65° N 20:48:57 10° E
Cosmos 1420 Rocket 3.9 20:41:28 10° SSW 20:46:39 77° ESE 20:51:52 10° NNE
STARLINK-1198 4.1 20:42:47 10° WSW 20:46:54 66° NNW 20:51:02 10° ENE
ERBS 2.1 20:45:05 10° SW 20:48:22 81° SE 20:51:42 10° NE
Okean 2 Rocket 3.1 20:46:21 10° N 20:50:49 82° W 20:54:51 12° S
STARLINK-1094 3.7 20:47:03 10° WNW 20:51:12 75° NNE 20:54:40 14° ESE
Cosmos 2279 Rocket 4.0 20:44:57 10° N 20:51:15 82° E 20:57:04 12° S
STARLINK-1199 4.1 20:47:46 10° WSW 20:51:53 63° NNW 20:56:01 10° ENE
STARLINK-1269 3.8 20:50:13 10° SW 20:54:12 48° SE 20:58:12 10° ENE
CENTAUR R/B 4.5 20:47:33 10° NW 20:54:15 32° NNE 21:01:39 10° E
STARLINK-1117 3.7 20:52:00 10° WNW 20:56:10 79° NNE 20:59:26 16° ESE
NOSS 3-1 (A) 4.3 20:50:50 10° WSW 20:56:20 52° NW 21:02:47 10° NE
STARLINK-1210 4.2 20:52:46 10° WSW 20:56:52 59° NNW 21:00:59 10° ENE
CZ-2C R/B 4.3 20:52:17 10° N 20:57:23 37° WNW 21:02:29 10° SW
Cosmos 2082 Rocket 2.2 20:51:46 10° NNW 20:57:32 82° ENE 21:01:58 17° SSE
STARLINK-1200 3.7 20:55:10 10° SW 20:59:11 52° SE 21:03:13 10° ENE
SL-4 R/B 1.3 20:56:17 10° NW 20:59:27 73° WSW 21:01:02 24° SSE
Cosmos 1833 Rocket 3.0 20:54:04 10° NNW 20:59:37 63° WSW 21:04:18 14° S
Okean 1 Rocket 3.7 20:56:19 10° N 21:00:34 41° ENE 21:03:19 19° SE
STARLINK-1078 3.6 20:57:00 10° WNW 21:01:10 84° NNE 21:04:13 18° ESE
STARLINK-1219 4.3 20:57:46 10° W 21:01:51 57° NNW 21:05:57 10° ENE
STARLINK-1192 3.6 21:00:06 10° SW 21:04:10 56° SE 21:08:13 10° ENE
Cosmos 2151 Rocket 3.7 21:00:01 10° N 21:04:34 85° W 21:08:09 16° S
STARLINK-1108 3.6 21:01:59 10° WNW 21:06:09 89° NE 21:09:00 20° ESE
STARLINK-1211 4.4 21:02:47 10° W 21:06:51 54° NNW 21:10:56 10° ENE
IGS 5A 3.9 21:04:41 14° S 21:08:11 58° W 21:12:19 10° NNW
STARLINK-1244 3.6 21:05:03 10° SW 21:09:07 60° SE 21:13:13 10° ENE
STARLINK-1071 3.6 21:06:57 10° WNW 21:11:07 86° SSW 21:13:47 22° ESE
Cosmos 1943 Rocket 3.6 21:09:28 17° ESE 21:11:08 19° E 21:14:59 10° NE
Cosmos 2369 Rocket 3.9 21:10:39 13° ESE 21:11:53 14° E 21:14:47 10° ENE
Terra 2.1 21:09:16 20° SE 21:12:22 56° ENE 21:17:03 10° N
SPOT 1/Viking Rocket 3.8 21:09:30 15° S 21:13:49 69° WSW 21:18:59 10° NNW
ISS -3.8 21:10:37 10° WNW 21:13:59 70° SSW 21:15:35 28° SE
STARLINK-1138 3.5 21:09:58 10° SW 21:14:04 65° SSE 21:18:11 10° ENE
STARLINK-1110 3.5 21:10:59 10° WNW 21:15:08 82° SSW 21:17:39 23° SE
Cosmos 1741 Rocket 4.0 21:10:46 10° NNW 21:16:01 88° ENE 21:19:31 21° SSE
SeaSat 1 3.8 21:13:25 10° ENE 21:17:05 21° ESE 21:18:10 19° ESE
Crew Dragon 0.0 21:15:32 10° WNW 21:17:43 62° SSW 21:17:56 57° S
Cosmos 1805 4.1 21:15:16 10° N 21:18:56 36° ENE 21:20:39 24° ESE
STARLINK-1143 3.5 21:14:55 10° SW 21:19:02 70° SSE 21:23:10 10° ENE
STARLINK-1124 3.6 21:16:54 10° WNW 21:21:03 76° SSW 21:23:19 26° SE
CARTOSAT-1 3.6 21:18:14 21° S 21:21:06 81° WSW 21:25:27 10° NNW
Cosmos 1066 Rocket 4.1 21:17:31 17° S 21:21:36 63° E 21:26:55 10° NNE
Cosmos 1461 3.2 21:19:51 18° S 21:22:40 46° ESE 21:26:50 10° NE
deb Kosmos-1763 4.3 21:19:23 10° NNW 21:22:56 54° ENE 21:24:30 29° SE
STARLINK-1128 4.5 21:19:12 10° WNW 21:23:13 48° NNE 21:27:08 11° E
NOSS 2-2 (C) 4.2 21:23:36 25° ESE 21:23:38 25° ESE 21:26:49 10° ENE
ERS-1 Rocket 3.1 21:20:07 19° S 21:23:46 75° WSW 21:28:50 10° NNW
STARLINK-1241 3.5 21:19:54 10° SW 21:24:01 75° SSE 21:28:10 10° ENE
Cosmos 371 Rocket 3.5 21:19:12 10° SSW 21:24:02 72° WNW 21:28:56 10° NNE
Cosmos 1092 Rocket 4.4 21:21:45 21° SSE 21:25:26 43° E 21:31:12 10° NNE
STARLINK-1203 3.5 21:21:44 10° SW 21:25:56 78° SSE 21:30:08 10° ENE
STARLINK-1122 3.6 21:21:54 10° WNW 21:26:02 70° SSW 21:28:06 28° SE
Lacrosse 5 2.1 21:21:05 10° WNW 21:26:02 57° SW 21:28:52 25° SSE
Cosmos 1850 Rocket 4.2 21:22:49 10° NNW 21:28:10 72° WSW 21:31:37 22° S
STARLINK-1113 4.4 21:24:10 10° WNW 21:28:13 49° NNE 21:31:53 12° E
STARLINK-1239 3.5 21:24:50 10° SW 21:28:59 80° SSE 21:33:08 10° ENE
STARLINK-1126 3.6 21:26:41 10° WNW 21:30:48 66° SW 21:32:42 30° SE
Cosmos 2278 Rocket 3.3 21:26:11 10° SW 21:31:38 46° NW 21:37:07 10° NNE
STARLINK-1119 4.3 21:29:09 10° WNW 21:33:12 51° NNE 21:36:40 14° E
STARLINK-1240 3.5 21:29:50 10° WSW 21:33:59 86° SSE 21:38:08 10° ENE
Cosmos 1110 Rocket 4.1 21:31:28 21° S 21:34:50 57° ESE 21:39:55 10° NNE
MTI 3.8 21:32:17 10° NNE 21:35:23 54° E 21:36:06 42° SSE
STARLINK-1082 3.7 21:31:52 10° WNW 21:35:58 61° SW 21:37:40 32° SSE
Meteor 1-15 Rocket 4.4 21:31:21 10° NNW 21:37:19 78° W 21:41:20 21° S
STARLINK-1114 4.3 21:34:08 10° WNW 21:38:12 54° NNE 21:41:28 15° E
STARLINK-1216 3.5 21:34:47 10° WSW 21:38:56 89° NW 21:43:06 10° ENE
USA 238 DEB 4.3 21:32:10 10° NW 21:39:13 56° NE 21:45:11 16° ESE
USA 238 4.3 21:32:17 10° NW 21:39:19 56° NE 21:45:19 16° ESE
STARLINK-1100 3.8 21:36:52 10° WNW 21:40:56 56° SW 21:42:28 34° SSE
Cosmos 1242 Rocket 4.5 21:41:39 16° E 21:41:49 16° E 21:44:11 10° NE
STARLINK-1130 (DARKSAT) 4.2 21:39:08 10° WNW 21:43:14 56° NNE 21:46:16 17° E
STARLINK-1237 3.6 21:39:46 10° WSW 21:43:55 84° NNW 21:48:05 10° ENE
STARLINK-1083 3.9 21:41:51 10° WNW 21:45:53 52° SW 21:47:14 35° SSE
Cosmos 1437 Rocket 3.7 21:43:31 13° SW 21:46:43 42° WNW 21:50:23 10° N
STARLINK-1084 4.1 21:44:05 10° WNW 21:48:12 59° NNE 21:51:01 19° E
STARLINK-1202 3.7 21:44:46 10° WSW 21:48:55 80° NNW 21:53:04 10° ENE
STARLINK-1125 4.0 21:46:51 10° WNW 21:50:51 48° SW 21:52:01 36° S
STARLINK-1098 4.0 21:49:04 10° WNW 21:53:11 62° NNE 21:55:48 21° E
Cosmos 1331 Rocket 3.9 21:52:17 23° SSW 21:55:34 76° ESE 22:00:47 10° NNE
STARLINK-1109 4.1 21:51:51 10° WNW 21:55:49 44° SW 21:56:48 37° S
Aureole 2 Rocket 2.6 21:56:35 29° SW 21:57:57 59° WNW 22:00:57 10° NNE
STARLINK-1123 3.9 21:54:03 10° WNW 21:58:11 66° NNE 22:00:36 24° E
Okean 2 3.5 21:57:29 39° SSE 21:58:49 62° E 22:02:56 10° NNE
STARLINK-1246 3.8 21:54:45 10° WSW 21:58:53 71° NNW 22:03:03 10° ENE
STARLINK-1091 4.2 21:56:50 10° WNW 22:00:45 41° SW 22:01:34 36° S
SPOT 5 4.0 21:58:23 19° SSW 22:01:42 41° W 22:06:45 10° NNW
BREEZE-M DEB (TANK) 3.9 21:49:44 10° WNW 22:01:59 63° SW 22:04:24 30° SSE
Cosmos 1378 Rocket 4.4 21:58:47 16° SSW 22:02:02 48° WNW 22:06:19 10° N
Cosmos 1302 Rocket 4.4 22:00:25 32° SSE 22:02:25 47° ESE 22:07:30 10° NNE
SL-8 R/B 3.6 21:58:00 10° WNW 22:02:51 88° SSW 22:06:00 22° ESE
STARLINK-1097 3.8 21:59:01 10° WNW 22:03:10 69° NNE 22:05:22 26° ESE
STARLINK-1224 3.9 21:59:44 10° WSW 22:03:52 67° NNW 22:08:00 10° ENE
Cosmos 304 Rocket 4.2 22:01:09 13° SW 22:05:22 61° WNW 22:10:09 10° NNE
STARLINK-1072 4.3 22:01:52 10° WNW 22:05:43 38° SW 22:06:22 35° SSW
Cosmos 1271 Rocket 4.1 22:07:09 23° E 22:07:23 24° E 22:10:32 10° NE
STARLINK-1099 3.7 22:04:01 10° WNW 22:08:10 73° NNE 22:10:10 29° ESE
STARLINK-1225 4.0 22:04:44 10° WSW 22:08:51 64° NNW 22:12:59 10° ENE
Cosmos 1766 3.4 22:04:57 10° NNW 22:08:56 70° W 22:10:13 40° SSW
Cosmos 1733 3.1 22:06:18 10° N 22:10:08 87° W 22:11:07 49° S
STARLINK-1096 4.4 22:06:53 10° WNW 22:10:40 35° SW 22:11:09 34° SSW
Cosmos 1553 Rocket 4.4 22:06:48 10° N 22:12:58 52° ENE 22:16:01 29° SE
STARLINK-1104 3.7 22:08:58 10° WNW 22:13:08 78° NNE 22:14:55 33° ESE
BREEZE-M DEB (TANK) 3.6 21:58:51 10° WSW 22:13:46 84° SSE 22:17:36 10° ENE
STARLINK-1230 4.1 22:09:44 10° WSW 22:13:50 61° NNW 22:17:57 10° ENE
Cosmos 2026 Rocket 4.0 22:11:35 29° S 22:15:00 76° E 22:21:20 10° NNE
STARLINK-1079 4.5 22:11:55 10° WNW 22:15:38 32° SW 22:15:56 32° SSW
Cosmos 1707 4.1 22:15:44 25° E 22:16:01 25° E 22:19:15 10° NNE
Cosmos 1975 Rocket 3.0 22:14:27 38° S 22:16:07 85° E 22:20:34 10° N
STARLINK-1144 3.6 22:13:58 10° WNW 22:18:08 82° NNE 22:19:43 37° ESE
STARLINK-1243 4.2 22:14:45 10° WSW 22:18:50 58° NNW 22:22:57 10° ENE
EXPRESS MD2 4.0 22:17:26 10° WSW 22:21:21 89° SSE 22:29:38 10° ENE
Abrixas rocket 2.7 22:18:37 10° WNW 22:20:46 41° W 22:20:46 41° W
SL-27 R/B 2.8 22:18:39 10° NNW 22:22:13 56° ENE 22:22:47 49° ESE
STARLINK-1103 3.5 22:18:56 10° WNW 22:23:07 87° NNE 22:24:30 41° ESE
USA 215 3.4 22:18:24 16° ESE 22:23:45 77° NNE 22:30:19 10° NW
STARLINK-1236 4.3 22:19:46 10° W 22:23:51 55° NNW 22:27:56 10° ENE
SL-4 R/B 3.1 22:28:19 18° NE 22:28:19 18° NE 22:29:19 10° NNE
STARLINK-1101 3.5 22:23:55 10° WNW 22:28:05 88° SSW 22:29:17 46° ESE
Cosmos 1953 3.6 22:25:08 10° NNE 22:28:37 28° ENE 22:29:31 25° E
Thor Agena Rocket 3.5 22:25:50 10° NNE 22:31:11 84° ESE 22:33:31 35° S
Cosmos 2297 4.4 22:25:43 10° SW 22:31:14 52° WNW 22:36:50 10° NNE
NOSS 2-2 (D) 3.3 22:30:16 29° SW 22:31:59 70° NW 22:36:01 10° NE
STARLINK-1102 3.5 22:28:55 10° WNW 22:33:05 83° SSW 22:34:04 51° SE
NOSS 3-2 (C) 4.1 22:29:34 10° NW 22:37:03 76° NE 22:42:46 23° SE
STARLINK-1111 3.5 22:33:53 10° WNW 22:38:02 78° SSW 22:38:50 56° SE
Cosmos 292 Rocket 3.9 22:37:50 44° SSE 22:39:02 58° ESE 22:43:48 10° NNE
Cosmos 1758 3.4 22:35:47 10° N 22:39:50 70° E 22:40:34 54° SE
BREEZE-M DEB (TANK) 3.8 22:27:26 10° WNW 22:40:05 79° SSW 22:42:01 34° SE
COSMOS 2455 4.1 22:39:19 23° ESE 22:40:07 24° ESE 22:44:46 10° NE
Cosmos 2082 Rocket 4.2 22:37:22 10° WNW 22:40:53 17° W 22:43:49 12° SW
STARLINK-1073 3.5 22:38:52 10° WNW 22:43:00 72° SSW 22:43:37 60° SSE
EO 1 Del DPAF 3.3 22:39:25 10° N 22:43:12 71° WNW 22:44:01 50° SW
ATLAS 3B R/B 3.7 22:38:46 10° NNW 22:45:11 43° NE 22:51:46 10° ESE
CENTAUR R/B 3.3 22:38:15 10° NW 22:46:15 76° NE 22:52:28 22° SE
NOSS 3-4 (A) 4.0 22:45:53 34° SE 22:47:04 37° ESE 22:52:44 10° NE
NOSS 3-4 (C) 4.0 22:46:00 34° SE 22:47:10 37° ESE 22:52:50 10° NE
STARLINK-1121 3.5 22:43:51 10° WNW 22:47:58 67° SW 22:48:24 62° S
Cosmos 1455 Rocket 3.5 22:44:01 10° NNW 22:48:15 51° W 22:49:22 40° SW
Cosmos 1025 Rocket 3.0 22:47:51 53° SE 22:48:35 64° E 22:52:51 10° NNE
Terra 3.8 22:48:09 14° SW 22:50:29 19° W 22:53:51 10° NW
Cosmos 1470 2.6 22:46:41 10° NNW 22:50:34 77° W 22:51:05 64° SSW
BREEZE-M DEB (TANK) 4.2 22:47:33 16° SW 22:51:00 74° SSE 23:06:26 10° ENE
SL-4 R/B 3.5 22:52:55 29° ESE 22:52:55 29° ESE 22:56:02 10° ENE
STARLINK-1106 3.5 22:48:50 10° WNW 22:52:56 62° SW 22:53:10 61° SSW
Cosmos 1943 Rocket 2.3 22:50:55 25° SW 22:54:16 71° WNW 22:59:53 10° NNE
STARLINK-1209 4.4 22:51:24 10° NW 22:54:28 38° NNE 22:56:06 22° ENE
SeaSat 1 2.8 22:50:05 10° NNE 22:54:58 64° WNW 22:57:56 24° SW
Cosmos 2369 Rocket 2.1 22:52:24 33° SSW 22:55:03 88° ESE 23:00:45 10° NNE
STARLINK-1112 3.6 22:53:49 10° WNW 22:57:54 58° SW 22:57:57 58° SSW
Cosmos 1726 2.4 22:59:10 10° N 23:02:49 55° ENE 23:03:06 53° E
STARLINK-1128 3.8 22:58:50 10° WNW 23:02:45 53° SW 23:02:45 53° SW
Cosmos 546 4.5 22:59:38 10° WNW 23:03:30 74° SSW 23:03:30 74° SSW
Spot 4 4.4 23:04:36 38° SW 23:05:59 49° W 23:10:43 10° NNW
STARLINK-1113 3.9 23:03:49 10° WNW 23:07:31 48° SW 23:07:31 48° SW
Lacrosse 5 4.1 23:07:09 10° WSW 23:08:03 10° WSW 23:08:03 10° WSW
STARLINK-1119 4.1 23:08:49 10° WNW 23:12:18 43° WSW 23:12:18 43° WSW
Cosmos 2228 4.0 23:10:50 10° N 23:14:46 35° ENE 23:15:48 31° ESE
ATLAS 2AS CENTAUR R/B 3.1 23:11:15 31° SSW 23:15:19 66° ESE 23:23:10 10° NE
Cosmos 1536 Rocket 3.5 23:14:55 55° SSW 23:15:49 76° W 23:20:11 10° N
Cosmos 968 Rocket 3.5 23:11:13 10° NNW 23:16:19 64° WSW 23:17:39 46° SSW
Cosmos 1242 Rocket 3.7 23:15:39 33° W 23:16:22 36° WNW 23:19:49 10° N
Cosmos 1503 Rocket 3.9 23:11:46 10° NNW 23:17:06 85° WSW 23:18:46 46° SSE
Landsat 4 4.3 23:13:46 10° NNE 23:17:14 41° E 23:17:14 41° E
STARLINK-1114 4.3 23:13:49 10° WNW 23:17:05 39° WSW 23:17:05 39° WSW
Meteor 2-8 Rocket 4.5 23:12:09 10° NNW 23:18:16 73° W 23:20:41 39° S
STARLINK-1228 3.9 23:15:46 10° WNW 23:19:07 51° NNE 23:20:08 36° ENE
NOSS 3-2 (A) 4.4 23:13:41 10° NW 23:20:59 51° WSW 23:24:27 33° S
ALOS 2 2.7 23:21:51 52° SSW 23:22:37 62° W 23:26:59 10° NNW
Cosmos 2292 Rocket 3.2 23:25:41 70° SSE 23:26:05 81° E 23:29:35 10° N
ATLAS CENTAUR R/B 2.1 23:27:38 40° ESE 23:27:38 40° ESE 23:31:23 10° NE
Cosmos 2315 Rocket 4.1 23:21:49 10° N 23:28:01 70° E 23:30:38 36° SSE
Cosmos 1626 4.1 23:29:00 18° E 23:29:13 18° E 23:31:49 10° NE
USA 238 DEB 4.4 23:23:22 10° NW 23:30:06 43° WSW 23:32:36 33° SSW
USA 238 4.4 23:23:28 10° NW 23:30:13 43° WSW 23:32:44 33° SSW
Cosmos 2058 Rocket 4.5 23:27:49 10° N 23:31:44 30° ENE 23:33:18 24° ESE
Cosmos 1656 Rocket 3.6 23:30:19 41° SSW 23:32:25 89° ESE 23:38:02 10° NNE
Cosmos 1354 Rocket 4.0 23:28:36 10° NNW 23:33:53 70° WSW 23:35:21 47° S
Cosmos 2263 4.4 23:32:54 30° SW 23:35:41 65° WNW 23:41:18 10° NNE
Meteor 2-10 4.2 23:30:57 10° NNW 23:35:53 56° W 23:37:10 43° SW
RESURS DK-1 3.8 23:37:48 24° ESE 23:37:48 24° ESE 23:40:59 10° NE
Meteor 2-5 Rocket 4.3 23:36:21 34° SE 23:38:07 46° E 23:43:26 10° NNE
Cosmos 1867 3.5 23:35:14 10° NW 23:40:44 82° SW 23:42:36 42° SSE
Aureole 3 3.1 23:38:17 10° NNW 23:41:25 63° NW 23:41:25 63° NW
S3M 4.5 23:36:33 10° NNW 23:42:26 48° W 23:44:50 32° SW
Cosmos 1271 Rocket 4.2 23:42:16 25° W 23:43:16 28° WNW 23:46:40 10° N
In-Cosmos 22 4.1 23:41:55 43° SSW 23:43:39 76° WNW 23:48:58 10° N
CZ-4 R/B 4.2 23:44:55 10° NNE 23:49:37 53° E 23:50:41 43° SE
Okean 1-7 Rocket 4.4 23:49:10 36° ESE 23:50:06 40° E 23:54:19 10° NNE
Cosmos 1606 Rocket 3.4 23:46:41 10° N 23:51:01 87° ENE 23:51:47 61° SSE
Cosmos 1707 4.3 23:50:53 24° W 23:51:48 26° WNW 23:55:09 10° NNW
SL-14 R/B 4.3 23:53:14 32° ESE 23:53:37 33° E 23:57:06 10° NNE
